Hourly Data Report for September 08, 2019

All times are specified in Local Standard Time (LST). Add 1 hour to adjust for Daylight Saving Time where and when it is observed.

EUREKA CLIMATE
NUNAVUT
Current Station Operator: ECCC - MSC

79°59'21.000" N
85°56'02.000" W
10.00 m
2401199
71613
NEK

Download Data

Hourly Data (September 2019)
Hourly Data Report for September 8, 2019
TIME Temp Definition
°C
Dew Point Definition
°C
Rel Hum Definition
%
Wind Dir Definition
10's deg

Wind Spd Definition
km/h
Visibility Definition
km
Stn Press Definition
kPa
Hmdx Definition


Wind Chill Definition


Weather Definition


00:00 1.4 0.2 92 27 19   101.07     LegendNANA
01:00 1.3 -0.1 91 28 19   101.09     LegendNANA
02:00 1.2 -0.3 90 29 19   101.12     LegendNANA
03:00 1.1 -0.4 90 29 19   101.12     LegendNANA
04:00 1.1 -0.6 89 28 14   101.15     LegendNANA
05:00 1.1 -0.5 89 29 13   101.18     LegendNANA
06:00 1.0 -0.5 89 31 5   101.19     LegendNANA
07:00 1.1 -0.7 88 32 4   101.18     LegendNANA
08:00 1.4 -0.5 87 0 1   101.17     LegendNANA
09:00 1.4 0.2 92 14 6   101.16     LegendNANA
10:00 1.5 0.5 93 15 11   101.14     LegendNANA
11:00 1.7 0.2 90 14 11   101.11     LegendNANA
12:00 1.8 0.6 92 14 13   101.09     LegendNANA
13:00 1.5 -0.6 86 15 22   101.06     LegendNANA
14:00 1.6 -0.3 87 14 22   101.04     LegendNANA
15:00 1.6 0.1 90 14 25   101.01     LegendNANA
16:00 1.5 -0.5 86 15 26   100.99     LegendNANA
17:00 1.4 -0.4 88 13 27   100.94     LegendNANA
18:00 1.2 -0.8 87 12 27   100.89     LegendNANA
19:00 1.4 -0.6 86 13 30   100.82     LegendNANA
20:00 1.2 -0.5 88 12 33   100.77     LegendNANA
21:00 1.3 -0.5 88 13 35   100.72     LegendNANA
22:00 1.5 -0.1 89 14 33   100.71     LegendNANA
23:00 1.1 -0.1 92 12 33   100.67     LegendNANA

Notes on Data Quality.

Legend

  • E = Estimated
  • M = Missing
  • NA = Not Available
Date modified: